www.pogodaiklimat.ru

Погода и климат >> Архив погоды >> Германия >> Leuchtturm Alte Weser


ПОГОДА в Leuchtturm Alte Weser

  • Прогноз погоды в Leuchtturm Alte Weser
  • Монитор погоды в Leuchtturm Alte Weser
  • Климат города

АРХИВ ПОГОДЫ в Leuchtturm Alte Weser

Время (UTC), дата Ветер
(напр.,м/с)
 
Видим.   Явления Облачность Т
(С)
Тd
(С)
f
(%)
Тe
(С)
Тes
(С)
Комфортность P
(гПа)
Po
(гПа)
Тmin
(С)
Tmax
(С)
R
(мм)
R24
(мм)
S
(см)
10 16.06 З 15
{17}
н/о н/о +14.5 +11.1 80 +11 +11 1015.0 1011.3
11 16.06 З 16
{18}
н/о н/о +14.5 +10.8 78 +11 +11 1015.5 1011.8
12 16.06 З 16
{19}
н/о н/о +14.5 +10.5 77 +11 +11 1016.3 1012.6
13 16.06 З 15
{19}
н/о н/о +14.5 +11.2 81 +11 +11 1016.5 1012.8
14 16.06 З 15
{18}
н/о н/о +14.3 +11.5 83 +11 +11 1017.1 1013.4
15 16.06 З 15
{19}
н/о н/о +14.3 +11.4 83 +11 +11 1017.7 1014.0
16 16.06 З 14
{17}
н/о н/о +14.3 +12.4 88 +11 +11 1018.1 1014.4
17 16.06 З 15
{16}
н/о н/о +14.3 +12.3 88 +11 +11 1018.7 1015.0
18 16.06 З 14
{19}
н/о н/о +14.3 +12.3 88 +11 +11 1018.9 1015.2 +14.2 +15.3
19 16.06 З 14
{16}
н/о н/о +14.3 +11.9 85 +11 +11 1019.2 1015.5
20 16.06 З 13
{16}
н/о н/о +14.1 +12.0 87 +11 +11 1019.6 1015.9
21 16.06 СЗ 13
{17}
н/о н/о +14.2 +11.8 85 +11 +11 1020.1 1016.4
22 16.06 З 13
{15}
н/о н/о +14.1 +11.5 84 +11 +11 1020.3 1016.6
23 16.06 З 14
{16}
н/о н/о +14.2 +11.7 85 +11 +11 1020.4 1016.7
00 17.06 З 13
{17}
н/о н/о +14.1 +11.2 83 +11 +11 1020.6 1016.9
01 17.06 З 13
{15}
н/о н/о +14.2 +12.0 87 +11 +11 1020.7 1016.9
02 17.06 СЗ 13
{15}
н/о н/о +13.9 +11.5 85 +11 +11 1020.8 1017.1
03 17.06 СЗ 12
{15}
н/о н/о +14.0 +12.2 89 +11 +11 1021.2 1017.4
04 17.06 СЗ 12
{14}
н/о н/о +13.9 +11.3 84 +11 +11 1021.3 1017.6
05 17.06 СЗ 11
{14}
н/о н/о +14.1 +11.6 85 +11 +11 1021.4 1017.6
06 17.06 СЗ 10
{15}
н/о н/о +14.3 +11.8 85 +12 +12 1021.7 1017.9 +13.8 +14.4
07 17.06 СЗ 8 н/о н/о +14.4 +11.8 84 +12 +12 1022.1 1018.4
08 17.06 З 8 н/о н/о +14.6 +12.6 88 +12 +12 1022.5 1018.8
09 17.06 З 8 н/о н/о +14.8 +12.3 85 +13 +13 1022.8 1019.1
10 17.06 З 7 н/о н/о +15.1 +12.3 83 +13 +13 1023.0 1019.3
11 17.06 З 8 н/о н/о +15.2 +12.6 84 +13 +13 1023.2 1019.5
12 17.06 З 7 н/о н/о +15.6 +13.7 88 +14 +14 1023.3 1019.6
13 17.06 З 8 н/о н/о +15.6 +14.6 94 +14 +14 1023.5 1019.8
14 17.06 З 8 н/о н/о +15.4 +14.5 94 +13 +13 1023.8 1020.1
15 17.06 З 7 н/о н/о +15.3 +14.3 94 +13 +13 1023.9 1020.1
16 17.06 СЗ 7 н/о н/о +14.5 +14.3 99 +12 +12 1023.8 1020.1
17 17.06 З 6 н/о н/о +15.0 +14.2 95 +13 +13 1023.8 1020.0
18 17.06 З 8 н/о н/о +15.4 +14.6 95 +13 +13 1023.9 1020.2 +14.0 +15.7
19 17.06 З 8 н/о н/о +15.3 +14.1 93 +13 +13 1024.1 1020.3
20 17.06 З 7 н/о н/о +15.2 +14.4 95 +13 +13 1024.1 1020.3
21 17.06 З 5 н/о н/о +15.3 +14.7 96 +14 +14 1024.2 1020.5
22 17.06 З 6 н/о н/о +15.4 +14.8 96 +14 +14 1024.7 1020.9
23 17.06 З 7 н/о н/о +15.5 +14.9 96 +14 +14 1024.8 1021.1
00 18.06 З 6 н/о н/о +15.5 +15.0 97 +14 +14 1024.8 1021.1
01 18.06 З 7 н/о н/о +15.5 +15.5 100 +14 +14 1024.7 1021.0
02 18.06 З 7 н/о н/о +15.3 +15.1 99 +13 +13 1024.4 1020.7
03 18.06 З 5 н/о н/о +15.3 +15.1 99 +14 +14 1024.3 1020.5
04 18.06 З 4 н/о н/о +15.2 +14.8 97 +14 +14 1024.5 1020.7
05 18.06 З 4 н/о н/о +15.2 +14.8 97 +14 +14 1024.7 1020.9
06 18.06 З 4 н/о н/о +15.3 +14.7 96 +14 +14 1024.8 1021.1 +15.0 +15.6
07 18.06 З 4 н/о н/о +15.7 +14.5 93 +15 +15 1025.1 1021.4
08 18.06 З 4 н/о н/о +16.1 +14.0 87 +15 +15 1025.4 1021.7
09 18.06 З 4 н/о н/о +16.4 +14.8 90 +16 +16 1025.1 1021.4
10 18.06 З 4 н/о н/о +16.6 +14.2 86 +16 +16 1025.4 1021.7
11 18.06 З 4 н/о н/о +16.9 +14.3 85 +16 +16 1025.4 1021.7
12 18.06 СЗ 4 н/о н/о +17.4 +14.4 83 +17 +17 1025.2 1021.5
13 18.06 СЗ 3 н/о н/о +17.6 +14.5 82 +18 +18 1025.1 1021.4
14 18.06 СЗ 3 н/о н/о +17.7 +13.4 76 +18 +18 1024.8 1021.1
15 18.06 СЗ 4 н/о н/о +17.8 +12.5 71 +18 +18 1024.2 1020.5
16 18.06 С 3 н/о н/о +17.8 +13.4 75 +18 +18 1024.4 1020.7
17 18.06 С 3 н/о н/о +18.0 +14.7 81 +18 +18 1023.7 1020.0
18 18.06 СВ 1 н/о н/о +19.1 +14.8 76 +22 +22 комфорт 1023.6 1019.9 +15.1 +18.9
19 18.06 СВ 1 н/о н/о +19.4 +14.8 75 +22 +22 комфорт 1023.4 1019.7
20 18.06 СВ 1 н/о н/о +18.4 +15.5 83 +20 +20 1023.1 1019.4
21 18.06 СВ 2 н/о н/о +17.9 +16.1 89 +18 +18 1023.3 1019.6
22 18.06 В 2 н/о н/о +18.0 +16.4 90 +19 +19 1023.4 1019.7
23 18.06 СВ 2 н/о н/о +17.9 +16.7 93 +18 +18 1022.9 1019.2
00 19.06 СВ 2 н/о н/о +17.9 +17.0 94 +18 +18 1023.0 1019.3
01 19.06 В 2 н/о н/о +17.8 +17.0 95 +18 +18 1022.8 1019.1
02 19.06 В 3 н/о н/о +17.6 +17.6 100 +18 +18 1022.6 1018.9
03 19.06 В 2 н/о н/о +18.1 +16.7 92 +19 +19 1022.3 1018.6
04 19.06 ЮВ 3 н/о н/о +18.2 +16.2 88 +19 +19 1022.2 1018.5
05 19.06 В 3 н/о н/о +18.2 +16.9 92 +19 +19 1022.2 1018.5
06 19.06 В 4 н/о н/о +18.2 +17.1 93 +18 +18 1021.8 1018.1 +17.5 +20.8
07 19.06 В 5 н/о н/о +18.6 +17.1 91 +19 +19 1021.7 1018.0
08 19.06 В 4 н/о н/о +19.2 +17.1 88 +21 +21 комфорт 1021.5 1017.8
09 19.06 ЮВ 3 н/о н/о +20.4 +16.8 80 +24 +24 комфорт 1021.2 1017.6
10 19.06 В 2 н/о н/о +21.8 +16.5 72 +26 +26 душно 1021.0 1017.3
11 19.06 В 2 н/о н/о +23.3 +16.3 65 +28 +28 душно 1020.6 1017.0
12 19.06 СВ 1 н/о н/о +24.3 +16.7 63 +28 +28 душно 1020.2 1016.6
13 19.06 С 2 н/о н/о +23.1 +15.6 63 +27 +27 душно 1019.6 1016.0
14 19.06 СЗ 4 н/о н/о +22.9 +15.0 61 +27 +27 душно 1018.9 1015.3
15 19.06 С 5 н/о н/о +23.1 +14.5 58 +27 +27 душно 1018.3 1014.7
16 19.06 С 4 н/о н/о +22.3 +14.8 63 +26 +26 жарко 1017.9 1014.3
17 19.06 СВ 4 н/о н/о +21.7 +17.7 78 +26 +26 душно 1017.6 1014.0
18 19.06 СВ 4 н/о н/о +23.3 +16.3 65 +28 +28 душно 1017.3 1013.7 +17.6 +27.1
19 19.06 СВ 3 н/о н/о +23.7 +15.4 60 +27 +27 жарко 1017.0 1013.4
20 19.06 СВ 2 н/о н/о +22.2 +15.6 66 +26 +26 душно 1016.9 1013.3
21 19.06 С 3 н/о н/о +20.8 +15.3 71 +24 +24 комфорт 1017.1 1013.5
22 19.06 С 3 н/о н/о +21.3 +18.8 86 +26 +26 душно 1016.9 1013.3
23 19.06 С 5 н/о н/о +19.6 +18.8 95 +22 +22 комфорт 1016.8 1013.2
00 20.06 С 6 н/о н/о +18.7 +18.7 100 +19 +19 1017.1 1013.4
01 20.06 С 5 н/о н/о +18.4 +18.3 99 +19 +19 1017.0 1013.3
02 20.06 СЗ 4 н/о н/о +18.5 +16.0 85 +19 +19 1016.6 1013.0
03 20.06 СЗ 7 н/о н/о +17.5 +16.9 96 +17 +17 1016.3 1012.7
04 20.06 С 7 н/о н/о +17.1 +16.2 94 +16 +16 1016.7 1013.0
05 20.06 С 10 н/о н/о +16.0 +15.5 97 +14 +14 1017.4 1013.7
06 20.06 С 8 н/о н/о +15.1 +15.1 100 +13 +13 1017.9 1014.2 +15.0 +23.8
07 20.06 С 8 н/о н/о +15.2 +14.0 93 +13 +13 1018.5 1014.8
08 20.06 С 8 н/о н/о +15.4 +13.2 87 +13 +13 1018.9 1015.2
09 20.06 С 8 н/о н/о +15.6 +12.8 83 +14 +14 1019.5 1015.8
10 20.06 С 8 н/о н/о +15.4 +11.7 79 +13 +13 1020.3 1016.6
11 20.06 С 8 н/о н/о +15.3 +11.5 78 +13 +13 1020.4 1016.7
12 20.06 С 9 н/о н/о +15.3 +9.8 70 +13 +13 1020.6 1016.9
13 20.06 С 8 н/о н/о +15.1 +9.6 70 +13 +13 1020.7 1017.0
14 20.06 С 8 н/о н/о +15.1 +10.0 72 +13 +13 1020.9 1017.2
15 20.06 С 9 н/о н/о +14.9 +8.7 66 +13 +13 1020.8 1017.0
16 20.06 С 9 н/о н/о +14.9 +9.1 68 +13 +13 1020.7 1016.9
17 20.06 С 9 н/о н/о +14.8 +8.9 68 +13 +13 1020.7 1017.0
18 20.06 С 8 н/о н/о +14.6 +8.9 69 +12 +12 1020.8 1017.0 +14.6 +16.2
19 20.06 С 8 н/о н/о +14.5 +9.6 72 +12 +12 1020.9 1017.2
20 20.06 С 8 н/о н/о +14.5 +9.0 70 +12 +12 1020.9 1017.1
21 20.06 С 8 н/о н/о +14.4 +9.3 71 +12 +12 1020.8 1017.1
22 20.06 С 7 н/о н/о +14.4 +9.8 74 +12 +12 1020.6 1016.8
23 20.06 С 6 н/о н/о +14.3 +9.5 73 +12 +12 1020.5 1016.8
00 21.06 С 6 н/о н/о +14.3 +9.3 72 +12 +12 1020.6 1016.8
01 21.06 С 5 н/о н/о +14.2 +9.3 72 +13 +13 1020.6 1016.9
02 21.06 С 5 н/о н/о +14.2 +9.2 72 +13 +13 1020.4 1016.7
03 21.06 С 5 н/о н/о +14.1 +8.7 70 +12 +12 1020.3 1016.6
04 21.06 СЗ 4 н/о н/о +14.2 +8.6 69 +13 +13 1020.5 1016.7
05 21.06 С 3 н/о н/о +14.3 +8.3 67 +13 +13 1020.4 1016.7
06 21.06 СЗ 3 н/о н/о +14.3 +8.5 68 +13 +13 1020.3 1016.6 +14.1 +14.9
07 21.06 СЗ 3 н/о н/о +14.3 +8.4 68 +13 +13 1020.4 1016.7
08 21.06 СЗ 2 н/о н/о +14.4 +8.6 68 +14 +14 1020.5 1016.8
09 21.06 СЗ 3 н/о н/о +14.3 +8.6 69 +13 +13 1020.6 1016.9
10 21.06 СЗ 2 н/о н/о +14.3 +8.6 69 +14 +14 1020.7 1016.9
11 21.06 СЗ 1 н/о н/о +14.8 +9.0 68 +15 +15 1020.5 1016.8
12 21.06 С 2 н/о н/о +14.6 +9.0 69 +14 +14 1019.8 1016.1
13 21.06 С 2 н/о н/о +15.1 +9.0 67 +15 +15 1019.4 1015.7
14 21.06 СВ 2 н/о н/о +15.2 +9.3 68 +15 +15 1018.7 1015.0
15 21.06 СВ 3 н/о н/о +15.2 +9.6 69 +15 +15 1018.1 1014.4
16 21.06 С 4 н/о н/о +15.1 +9.6 70 +14 +14 1018.2 1014.5
17 21.06 С 5 н/о н/о +15.0 +9.8 71 +14 +14 1017.5 1013.8
18 21.06 СВ 5 н/о н/о +15.0 +9.9 72 +14 +14 1017.3 1013.5 +14.1 +16.9
19 21.06 В 5 н/о н/о +15.4 +10.3 72 +14 +14 1016.4 1012.7
20 21.06 СВ 4 н/о н/о +15.4 +10.7 74 +14 +14 1016.3 1012.6
21 21.06 В 4 н/о н/о +15.5 +10.5 72 +15 +15 1016.2 1012.5
22 21.06 В 4 н/о н/о +16.1 +10.8 71 +15 +15 1015.8 1012.1
23 21.06 ЮВ 4 н/о н/о +16.3 +12.1 76 +16 +16 1015.3 1011.6
00 22.06 ЮВ 5 н/о н/о +16.1 +11.9 76 +15 +15 1014.8 1011.1
01 22.06 ЮВ 4 н/о н/о +16.2 +12.0 76 +15 +15 1014.5 1010.9
02 22.06 ЮВ 5 н/о н/о +16.3 +11.9 75 +15 +15 1013.9 1010.2
03 22.06 ЮВ 6 н/о н/о +16.0 +12.6 80 +15 +15 1012.9 1009.3
04 22.06 ЮВ 7 н/о н/о +16.0 +12.4 79 +14 +14 1011.6 1007.9
05 22.06 ЮВ 6 н/о н/о +16.8 +13.8 82 +16 +16 1010.9 1007.2
06 22.06 ЮВ 7 н/о н/о +17.5 +13.3 76 +17 +17 1010.1 1006.4 +14.9 +17.7
07 22.06 ЮВ 7 н/о н/о +17.8 +14.0 78 +17 +17 1009.3 1005.6
11 22.06 ЮВ 11
{14}
н/о н/о +19.1 +17.1 88 +20 +20 1007.5 1003.9
12 22.06 ЮВ 9
{27}
н/о н/о +20.5 +17.0 80 +23 +23 комфорт 1007.0 1003.4
13 22.06 ЮВ 10 н/о н/о +21.3 +17.2 77 +25 +25 комфорт 1006.4 1002.8
14 22.06 Ю 7 н/о н/о +22.8 +18.1 75 +28 +28 душно 1005.8 1002.3
15 22.06 ЮЗ 5 н/о н/о +23.2 +18.6 75 +29 +29 душно 1005.5 1002.0
16 22.06 ЮЗ 14
{24}
н/о н/о +19.7 +18.3 92 +21 +21 комфорт 1007.0 1003.4
18 22.06 ЮЗ 10
{24}
н/о н/о +22.3 +15.4 65 +26 +26 жарко 1004.7 1001.1 +15.8 +23.8
20 22.06 З 11
{13}
н/о н/о +17.2 +16.7 97 +16 +16 1004.4 1000.8
19 22.06 З 11
{14}
н/о н/о +18.0 +16.8 93 +17 +17 1004.4 1000.7
21 22.06 ЮЗ 12
{14}
н/о н/о +18.0 +16.9 93 +17 +17 1005.0 1001.4
22 22.06 ЮЗ 12
{17}
н/о н/о +17.5 +16.4 93 +16 +16 1005.2 1001.5
23 22.06 З 15
{19}
н/о н/о +15.9 +15.9 100 +13 +13 1005.6 1002.0
00 23.06 З 14
{19}
н/о н/о +16.0 +16.0 100 +13 +13 1006.1 1002.4
02 23.06 З 15
{19}
н/о н/о +15.9 +15.4 97 +13 +13 1006.3 1002.7
01 23.06 З 17
{20}
н/о н/о +15.4 +15.2 99 +12 +12 1006.4 1002.7
03 23.06 З 15
{20}
н/о н/о +15.9 +15.6 98 +13 +13 1006.7 1003.1
04 23.06 З 16
{19}
н/о н/о +15.8 +15.3 97 +13 +13 1007.2 1003.5
05 23.06 З 17
{20}
н/о н/о +15.7 +15.1 96 +13 +13 1007.9 1004.3
08 23.06 З 14
{16}
н/о н/о +15.6 +13.5 87 +13 +13 1010.4 1006.7
07 23.06 З 15
{17}
н/о н/о +15.4 +13.5 88 +12 +12 1009.4 1005.7
09 23.06 ЮЗ 12
{19}
н/о н/о +15.8 +13.8 88 +13 +13 1011.0 1007.3

 

Местоположение метеостанции Leuchtturm Alte Weser (Германия): широта 53.87 долгота 8.13 высота над уровнем моря 32 м.

В архиве по умолчанию представлена погода в Leuchtturm Alte Weser за последнюю неделю. Архивные данные за месяц целиком и за предыдущие месяцы, начиная с января 2011 года, Вы можете получить, выбрав интересующий диапазон дат из раскрывающегося списка и нажав кнопку "Ввод!".

Внимание! Время в таблицах - всемирное. Для получения местного времени необходимо прибавить поправку, которая в Leuchtturm Alte Weser равна 1 ч.

Смотрите также архив погоды в соседних городах и на ближайших метеорологических станциях:

Погода в Nordholz (Германия) (37 км)
Погода в Cuxhaven (Германия) (37 км)
Погода в Helgoland (Германия) (38 км)
Погода в Wittmundhaven (Германия) (47 км)
Погода в Bremerhaven (Германия) (48 км)
Погода в Ufs Deutsche Bucht (Германия) (57 км)
Погода в St Peter-Ording (Германия) (60 км)
Погода в Elpersbuettel (Германия) (62 км)
Погода в Norderney Island (Германия) (67 км)
Погода в Bremervoerde (Германия) (80 км)

Пояснения к столбцам:

Ветер - указаны скорость ветра в м/с - средняя за 10 мин, порывы в срок и между сроками (в фигурных скобках) и направление, откуда дует ветер: С - северный, СВ - северо-восточный, В - восточный, ЮВ - юго-восточный, Ю - южный, ЮЗ - юго-западный, З - западный, СЗ - северо-западный.
Видимость - горизонтальная дальность видимости в метрах или километрах. При видимости от 1 до 10 км при отсутствии осадков обычно наблюдается дымка, при ухудшении видимости до 1 км и менее - туман. В сухую погоду видимость может ухудшаться дымом, пылью или мглою.
Явления - указаны атмосферные явления, наблюдавшиеся в срок или в последний час перед сроком; фигурными скобками обозначены явления, наблюдавшиеся между сроками (за 1-3 часа до срока); квадратными скобками обозначены град или гололедные отложения с указанием их диаметра в мм.
Облачность - указаны через наклонную черту общая и нижняя облачность в баллах и высота нижней границы облаков в метрах; квадратными скобками обозначены формы облаков: Ci - перистые, Cs - перисто-слоистые, Cc - перисто-кучевые, Ac - высококучевые, As - высокослоистые, Sc - слоисто-кучевые, Ns - слоисто-дождевые, Cu - кучевые, Cb - кучево-дождевые. Подробнее классификацию облаков см. в Атласе облаков (PDF).
T - Температура воздуха - температура, измеренная на высоте 2 м над землей.
Td - Температура точки росы - температура, при понижении до которой содержащийся в воздухе водяной пар достигнет насыщения.
f - Относительная влажность воздуха - влажноcть воздуха, измеренная на высоте 2 м над землей.
Te - Эффективная температура - температура, которую ощущает одетый по сезону человек в тени. Характеристика душности погоды. При расчете учитывается влияние влажности воздуха и скорости ветра на теплоощущения человека.
Tes - Эффективная температура на солнце - температура, которую ощущает человек, с поправкой на солнечный нагрев. Характеристика знойности погоды. Зависит от высоты солнца над горизонтом, облачности и скорости ветра. Ночью, в пасмурную погоду, а также при ветре 12 м/с и более поправка равна нулю.
P - Атмосферное давление - приведенное к уровню моря атмосферное давление.
Po - Атмосферное давление - измеренное на уровне метеостанции атмосферное давление.
Tmin - Минимальная температура - минимум температуры воздуха на высоте 2 м над землей.
Tmax - Максимальная температура - максимум температуры воздуха на высоте 2 м над землей.
R - Количество осадков - Количество выпавших осадков за период времени, мм. При наведении курсора мыши на число - период времени, за который выпало указанное количество осадков.
R24 - Количество осадков - Количество выпавших осадков за 24 часа, мм.
S - Снежный покров - Высота снежного покрова, см. При наведении курсора мыши на число - состояние снежного покрова и степень покрытия местности в баллах.